This demonstration page uses our WeatherBlox Daily Observations layout. Learn more.

Left ArrowRight Arrow

Hourly Observations for March 11, 2018

Temp ( °F °C ) Dew Point ( °F °C ) Humidity (%) Winds ( mph kmh ) Pressure ( in mb ) Visibility ( mi km ) Precip ( " mm )
12:59 am 00:59 Cloudy 42 5.6 38 3.3 85 85 ESE 3 6 30.08 1019 7 11 0.00 0.00
1:59 am 01:59 Cloudy 43 6.1 38 3.3 82 82 SE 3 6 30.09 1019 8 13 0.00 0.00
3:59 am 03:59 Cloudy 42 5.6 37 2.8 82 82 Calm 30.06 1018 8 13 0.00 0.00
4:59 am 04:59 Cloudy 41 5 37 2.8 86 86 ENE 3 6 30.06 1018 8 13 0.00 0.00
5:59 am 05:59 Cloudy 43 6.1 36 2.2 76 76 NNE 7 11 30.08 1019 10 16 0.00 0.00
6:59 am 06:59 Cloudy 43 6.1 36 2.2 76 76 NE 8 13 30.08 1019 10 16 0.00 0.00
7:59 am 07:59 Mostly Cloudy 42 5.6 35 1.7 76 76 NE 9 15 30.10 1019 9 14 0.00 0.00
8:59 am 08:59 Cloudy 42 5.6 32 0 68 68 ENE 10 17 30.12 1020 10 16 0.00 0.00
9:59 am 09:59 Cloudy 43 6.1 35 1.7 74 74 NE 9 15 30.15 1021 10 16 0.00 0.00
10:59 am 10:59 Cloudy 43 6.1 34 1.1 71 71 ENE 14 22 30.15 1021 10 16 0.00 0.00
11:59 am 11:59 Cloudy 44 6.7 32 0 63 63 NE 12 19 30.14 1021 10 16 0.00 0.00
12:59 pm 12:59 Cloudy 45 7.2 32 0 61 61 ENE 10 17 30.11 1020 10 16 0.00 0.00
1:59 pm 13:59 Cloudy 43 6.1 30 -1.1 60 60 NE 10 17 30.10 1019 10 16 0.00 0.00
2:59 pm 14:59 Cloudy 43 6.1 30 -1.1 60 60 NE 10 17 30.09 1019 10 16 0.00 0.00
3:59 pm 15:59 Cloudy 44 6.7 27 -2.8 51 51 ENE 9 15 30.09 1019 10 16 0.00 0.00
4:59 pm 16:59 Cloudy 43 6.1 29 -1.7 58 58 ENE 10 17 30.07 1018 10 16 0.00 0.00
5:59 pm 17:59 Cloudy 42 5.6 29 -1.7 60 60 ENE 9 15 30.06 1018 10 16 0.00 0.00
6:59 pm 18:59 Cloudy with Light Rain 42 5.6 29 -1.7 60 60 ENE 8 13 30.07 1018 10 16 0.00 0.03
7:59 pm 19:59 Cloudy with Light Rain 41 5 33 0.6 73 73 NE 8 13 30.06 1018 8 13 0.01 0.25
8:59 pm 20:59 Cloudy 41 5 34 1.1 76 76 ENE 7 11 30.06 1018 10 16 0.00 0.03
9:59 pm 21:59 Cloudy with Light Rain 41 5 34 1.1 76 76 ENE 6 9 30.06 1018 10 16 0.01 0.25
10:59 pm 22:59 Cloudy with Light Rain 41 5 34 1.1 76 76 E 8 13 30.05 1018 10 16 0.01 0.25
11:59 pm 23:59 Cloudy with Light Rain 41 5 34 1.1 76 76 E 7 11 30.03 1017 10 16 0.00 0.03

Powered by AerisWeather